Location: Red Deer
(52.2681°N, 113.8112°W)
Time: 19:28:16
(UTC-07:00)

N. Korean satellite - Pass Details

Date: 29 November 2022
Orbit: 407 x 442 km, 97.3° (Epoch: 05 February)

Event Time Altitude Azimuth Distance (km) Brightness Sun altitude
Rises 17:59:43 0° 207° (SSW) 2,439 10.9 -13.4°
Reaches altitude 10° 18:02:19 10° 230° (SW) 1,588 10.3 -13.8°
Maximum altitude 18:04:30 16° 270° (W) 1,285 9.8 -14.1°
Drops below altitude 10° 18:06:42 10° 310° (NW) 1,618 9.7 -14.4°
Sets 18:09:25 0° 332° (NNW) 2,512 10.3 -14.8°
